Flag for Switzerland Weather past 2 weeks in Martigny, Valais, Switzerland

Now
52 °F

Cool.


Feels Like: 50 °F
Forecast: 46 / 59 °F
Wind: 5 mph from Southwest

Location: Sion

Current Time: Mar 30, 2015 at 7:16:29 PM

Latest Report: Mar 30, 2015 at 6:00 PM


Visibility: N/A

Pressure: 29.92 "Hg

Humidity: 77%

Dew point: 44 °F

Location of MartignyLocation

Historic Weather in Martigny — Graph

°F

Martigny temperature yesterday

Maximum temperature yesterday: 57 °F (at 1:00 PM)
Minimum temperature yesterday: 40 °F (at 3:00 AM)
Average temperature yesterday: 48 °F

Past Weeks' High & Low Weather Summary

 TemperatureHumidityPressure
High66 °F (Mar 19, 4:00 PM)96% (Mar 30, 12:00 AM)30.35 "Hg (Mar 30, 12:00 AM)
Low32 °F (Mar 28, 7:00 AM)24% (Mar 24, 2:00 PM)29.50 "Hg (Mar 25, 12:00 PM)
Average49 °F59%30.02 "Hg
* Reported Mar 15 4:00 PM — Mar 30 5:00 PM, Martigny, Weather by CustomWeather, © 2015

Note: Actual official high and low records may vary slightly from our data, if they occured in-between our weather recording intervals... More about our weather records

Advertising

Martigny weather history for previous 24 hours

 ConditionsComfort  
Time TempWeatherWind HumidityBarometerVisibility
5:00 PM
Mon, Mar 30
52 °FRain. Overcast.2 mph88%29.90 "Hg6 mi
4:00 PM53 °FCool.6 mph76%29.87 "HgN/A
3:00 PM54 °FCool.2 mph69%29.86 "HgN/A
2:00 PM52 °FHeavy rain. Low clouds.2 mph88%29.86 "Hg6 mi
1:00 PM52 °FCool.3 mph85%29.88 "HgN/A
12:00 PM50 °FCool.6 mph89%29.87 "HgN/A
11:00 AM49 °FCool.1 mph91%29.88 "HgN/A
10:00 AM48 °FCool.3 mph89%29.88 "HgN/A
9:00 AM47 °FCool.3 mph91%29.85 "HgN/A
8:00 AM47 °FHeavy rain. Low clouds.3 mph88%29.86 "Hg5 mi
7:00 AM46 °FCool.1 mph92%29.86 "HgN/A
6:00 AM47 °FCool.1 mph92%29.85 "HgN/A
5:00 AM47 °FRain. Overcast.1 mph92%29.85 "Hg9 mi
4:00 AM47 °FCool.2 mph89%29.87 "HgN/A
3:00 AM47 °FCool.1 mph93%29.89 "HgN/A
2:00 AM47 °FRain. Overcast.1 mph94%29.91 "Hg9 mi
1:00 AM48 °FCool.1 mph95%29.93 "HgN/A
12:00 AM48 °FCool.1 mph96%29.94 "HgN/A
10:00 PM
Sun, Mar 29
48 °FCool.No wind94%29.96 "HgN/A
9:00 PM48 °FCool.1 mph94%29.96 "HgN/A
8:00 PM49 °FLight rain. Overcast.1 mph91%29.98 "Hg12 mi
7:00 PM51 °FCool.2 mph78%29.98 "HgN/A
Weather by CustomWeather, © 2015

See weather overviewHow to use our weather pages